QPF
0.02 0.01 0.01 0.02 0.02 0.03 0.04 0.05 0.05 0.03 0.02 0.02 0.03 0.03 0.02 0.02 0.03 0.03 0.05 0.06 0.05 0.06 0.06 0.05 0.04 0.04 0.04 0.04 0.05 0.06 0.06 0.06 0.07 0.08 0.08 0.06 0.05 0.06
0.02 0.01 0.01 0.01 0.01 0.02 0.03 0.04 0.05 0.05 0.04 0.03 0.04 0.03 0.03 0.03 0.04 0.03 0.04 0.07 0.06 0.05 0.05 0.06 0.04 0.03 0.03 0.04 0.03 0.04 0.04 0.04 0.05 0.05 0.05 0.05 0.05 0.05
0.02 0.01 0.01 0.01 0.01 0.01 0.02 0.02 0.03 0.04 0.04 0.04 0.03 0.04 0.05 0.05 0.06 0.05 0.04 0.04 0.05 0.06 0.05 0.06 0.06 0.05 0.05 0.03 0.03 0.02 0.03 0.03 0.04 0.04 0.04 0.05 0.04 0.03
0.01 0.01 0.01 0.01 0.01 0.00 0.01 0.01 0.01 0.02 0.03 0.03 0.04 0.04 0.04 0.06 0.08 0.08 0.07 0.05 0.04 0.05 0.05 0.05 0.05 0.07 0.06 0.05 0.03 0.03 0.03 0.03 0.03 0.02 0.03 0.03 0.03 0.03
0.01 0.01 0.01 0.01 0.01 0.01 0.01 0.01 0.01 0.02 0.02 0.02 0.02 0.03 0.03 0.06 0.07 0.09 0.09 0.09 0.07 0.06 0.04 0.03 0.03 0.05 0.08 0.07 0.05 0.04 0.03 0.03 0.02 0.02 0.02 0.03 0.02 0.02
0.01 0.02 0.02 0.01 0.01 0.01 0.01 0.00 0.01 0.01 0.01 0.02 0.02 0.02 0.03 0.04 0.04 0.06 0.07 0.08 0.08 0.07 0.05 0.03 0.02 0.03 0.04 0.05 0.05 0.04 0.03 0.03 0.03 0.02 0.02 0.02 0.02 0.02
0.00 0.01 0.01 0.02 0.02 0.01 0.01 0.01 0.01 0.01 0.01 0.02 0.02 0.03 0.05 0.03 0.02 0.03 0.04 0.05 0.05 0.06 0.07 0.04 0.03 0.02 0.03 0.04 0.04 0.05 0.04 0.04 0.04 0.03 0.02 0.02 0.02 0.02
0.00 0.01 0.01 0.01 0.01 0.01 0.01 0.01 0.01 0.01 0.02 0.02 0.02 0.04 0.06 0.05 0.03 0.02 0.03 0.04 0.04 0.04 0.06 0.05 0.04 0.03 0.02 0.02 0.03 0.04 0.05 0.05 0.05 0.04 0.04 0.03 0.03 0.03
0.00 0.01 0.01 0.01 0.01 0.01 0.01 0.01 0.01 0.01 0.02 0.02 0.02 0.03 0.03 0.04 0.04 0.02 0.02 0.03 0.03 0.04 0.07 0.07 0.05 0.04 0.03 0.02 0.03 0.03 0.03 0.03 0.04 0.05 0.05 0.05 0.04 0.04
0.00 0.01 0.01 0.01 0.01 0.01 0.01 0.01 0.00 0.01 0.01 0.02 0.02 0.01 0.01 0.02 0.02 0.02 0.02 0.03 0.03 0.03 0.05 0.07 0.06 0.05 0.03 0.02 0.02 0.01 0.02 0.02 0.02 0.03 0.04 0.04 0.03 0.04
0.00 0.00 0.01 0.01 0.01 0.02 0.01 0.01 0.01 0.01 0.01 0.01 0.01 0.01 0.00 0.00 0.01 0.02 0.02 0.03 0.03 0.02 0.03 0.05 0.07 0.05 0.04 0.03 0.03 0.02 0.02 0.02 0.02 0.02 0.02 0.03 0.03 0.02
0.01 0.00 0.01 0.01 0.01 0.01 0.01 0.01 0.01 0.01 0.01 0.01 0.01 0.00 0.01 0.01 0.01 0.01 0.02 0.02 0.03 0.03 0.03 0.04 0.05 0.05 0.05 0.05 0.04 0.03 0.02 0.02 0.03 0.02 0.02 0.02 0.02 0.02
0.02 0.01 0.01 0.00 0.00 0.00 0.01 0.01 0.01 0.01 0.01 0.01 0.01 0.01 0.01 0.01 0.01 0.01 0.01 0.02 0.02 0.03 0.04 0.05 0.06 0.05 0.03 0.03 0.03 0.03 0.01 0.01 0.02 0.03 0.03 0.03 0.02 0.02
0.01 0.01 0.01 0.00 0.00 0.00 0.00 0.01 0.01 0.01 0.01 0.01 0.01 0.01 0.01 0.01 0.02 0.01 0.01 0.01 0.01 0.01 0.02 0.04 0.05 0.05 0.05 0.03 0.02 0.02 0.01 0.01 0.01 0.02 0.02 0.03 0.02 0.02
0.01 0.02 0.01 0.00 0.01 0.01 0.01 0.01 0.01 0.01 0.01 0.01 0.01 0.01 0.01 0.02 0.02 0.01 0.01 0.01 0.01 0.01 0.01 0.01 0.03 0.03 0.04 0.04 0.02 0.02 0.02 0.01 0.01 0.01 0.01 0.02 0.01 0.01
0.01 0.01 0.01 0.01 0.00 0.01 0.01 0.01 0.01 0.01 0.01 0.01 0.01 0.02 0.02 0.02 0.02 0.02 0.02 0.01 0.01 0.01 0.01 0.01 0.02 0.03 0.03 0.03 0.04 0.02 0.01 0.01 0.01 0.01 0.01 0.01 0.01 0.00
0.00 0.01 0.01 0.01 0.01 0.01 0.01 0.01 0.01 0.01 0.01 0.01 0.01 0.02 0.02 0.02 0.03 0.04 0.03 0.02 0.02 0.01 0.01 0.01 0.02 0.03 0.03 0.03 0.03 0.03 0.02 0.01 0.01 0.01 0.02 0.02 0.01 0.01
0.01 0.01 0.01 0.01 0.01 0.01 0.01 0.01 0.01 0.01 0.01 0.01 0.02 0.02 0.02 0.02 0.02 0.02 0.02 0.02 0.02 0.02 0.01 0.01 0.01 0.02 0.03 0.03 0.02 0.02 0.02 0.02 0.02 0.01 0.02 0.02 0.01 0.00
0.01 0.01 0.01 0.01 0.01 0.01 0.01 0.01 0.01 0.01 0.01 0.01 0.02 0.02 0.01 0.02 0.02 0.01 0.01 0.01 0.01 0.01 0.01 0.01 0.01 0.01 0.02 0.02 0.02 0.02 0.02 0.01 0.02 0.02 0.01 0.01 0.01 0.00
0.02 0.01 0.01 0.01 0.01 0.01 0.01 0.01 0.01 0.01 0.01 0.01 0.01 0.01 0.01 0.01 0.02 0.01 0.01 0.01 0.01 0.01 0.01 0.02 0.01 0.01 0.02 0.02 0.01 0.01 0.02 0.02 0.01 0.02 0.02 0.01 0.00 0.00
0.02 0.02 0.02 0.01 0.01 0.01 0.01 0.01 0.01 0.01 0.01 0.01 0.01 0.02 0.02 0.01 0.01 0.01 0.01 0.01 0.01 0.01 0.01 0.01 0.01 0.01 0.03 0.03 0.02 0.01 0.02 0.02 0.02 0.01 0.02 0.02 0.01 0.01
0.02 0.02 0.02 0.02 0.02 0.01 0.01 0.01 0.01 0.01 0.01 0.01 0.01 0.01 0.03 0.03 0.02 0.02 0.01 0.01 0.01 0.01 0.01 0.02 0.02 0.02 0.04 0.04 0.02 0.02 0.01 0.01 0.01 0.01 0.01 0.01 0.02 0.01
0.03 0.03 0.03 0.03 0.02 0.02 0.02 0.02 0.02 0.02 0.02 0.02 0.02 0.02 0.02 0.02 0.01 0.01 0.02 0.01 0.01 0.01 0.01 0.02 0.02 0.02 0.03 0.03 0.02 0.02 0.01 0.01 0.00 0.01 0.01 0.01 0.01 0.01
MSLP
1009.82 1009.86 1009.99 1010.20 1010.43 1010.68 1010.92 1011.14 1011.34 1011.54 1011.75 1012.00 1012.28 1012.60 1012.95 1013.31 1013.66 1013.98 1014.26 1014.48 1014.65 1014.76 1014.82 1014.81 1014.75 1014.61 1014.40 1014.09 1013.71 1013.26 1012.77 1012.28 1011.84 1011.48 1011.24 1011.14 1011.20 1011.40
1010.02 1010.00 1010.05 1010.17 1010.33 1010.52 1010.73 1010.94 1011.16 1011.39 1011.64 1011.92 1012.24 1012.58 1012.93 1013.28 1013.61 1013.90 1014.15 1014.36 1014.53 1014.67 1014.78 1014.85 1014.87 1014.83 1014.72 1014.51 1014.22 1013.85 1013.42 1012.98 1012.56 1012.22 1011.98 1011.87 1011.92 1012.10
1010.40 1010.30 1010.28 1010.31 1010.40 1010.53 1010.70 1010.89 1011.10 1011.34 1011.62 1011.92 1012.25 1012.59 1012.93 1013.24 1013.53 1013.79 1014.01 1014.20 1014.36 1014.52 1014.66 1014.79 1014.89 1014.95 1014.93 1014.83 1014.64 1014.37 1014.03 1013.67 1013.31 1013.01 1012.80 1012.71 1012.75 1012.93
1010.88 1010.73 1010.63 1010.60 1010.62 1010.69 1010.81 1010.96 1011.16 1011.39 1011.66 1011.96 1012.27 1012.58 1012.88 1013.16 1013.41 1013.62 1013.80 1013.97 1014.12 1014.29 1014.46 1014.63 1014.79 1014.91 1014.98 1014.98 1014.89 1014.72 1014.48 1014.22 1013.95 1013.72 1013.57 1013.52 1013.57 1013.74
1011.38 1011.20 1011.06 1010.97 1010.93 1010.95 1011.02 1011.14 1011.29 1011.49 1011.73 1011.98 1012.25 1012.52 1012.78 1013.00 1013.20 1013.37 1013.52 1013.66 1013.81 1013.97 1014.15 1014.35 1014.54 1014.71 1014.85 1014.92 1014.91 1014.84 1014.71 1014.55 1014.38 1014.25 1014.17 1014.17 1014.26 1014.43
1011.85 1011.64 1011.48 1011.35 1011.28 1011.25 1011.28 1011.34 1011.45 1011.59 1011.77 1011.97 1012.18 1012.39 1012.58 1012.76 1012.91 1013.05 1013.17 1013.30 1013.44 1013.60 1013.78 1013.98 1014.18 1014.38 1014.54 1014.66 1014.72 1014.72 1014.69 1014.63 1014.57 1014.53 1014.54 1014.61 1014.74 1014.92
1012.22 1012.01 1011.83 1011.70 1011.59 1011.53 1011.51 1011.53 1011.58 1011.66 1011.76 1011.89 1012.03 1012.17 1012.31 1012.44 1012.56 1012.68 1012.79 1012.91 1013.05 1013.20 1013.38 1013.57 1013.76 1013.94 1014.11 1014.24 1014.34 1014.40 1014.44 1014.46 1014.50 1014.56 1014.65 1014.79 1014.96 1015.17
1012.49 1012.28 1012.10 1011.96 1011.84 1011.76 1011.70 1011.66 1011.65 1011.66 1011.69 1011.74 1011.82 1011.90 1011.99 1012.09 1012.20 1012.31 1012.42 1012.55 1012.68 1012.83 1012.99 1013.15 1013.31 1013.47 1013.61 1013.73 1013.83 1013.92 1014.00 1014.10 1014.21 1014.35 1014.52 1014.72 1014.95 1015.18
1012.66 1012.46 1012.28 1012.13 1012.01 1011.90 1011.81 1011.73 1011.66 1011.61 1011.58 1011.56 1011.57 1011.61 1011.67 1011.75 1011.85 1011.96 1012.09 1012.22 1012.35 1012.49 1012.63 1012.75 1012.87 1012.98 1013.08 1013.16 1013.25 1013.34 1013.46 1013.59 1013.76 1013.96 1014.20 1014.45 1014.72 1014.97
1012.77 1012.57 1012.39 1012.24 1012.10 1011.98 1011.86 1011.74 1011.63 1011.52 1011.43 1011.37 1011.34 1011.34 1011.38 1011.45 1011.54 1011.66 1011.80 1011.93 1012.07 1012.19 1012.29 1012.38 1012.45 1012.50 1012.54 1012.59 1012.64 1012.73 1012.85 1013.01 1013.21 1013.46 1013.74 1014.03 1014.32 1014.59
1012.87 1012.66 1012.48 1012.31 1012.16 1012.01 1011.87 1011.71 1011.56 1011.42 1011.29 1011.19 1011.13 1011.10 1011.12 1011.19 1011.28 1011.41 1011.54 1011.67 1011.79 1011.89 1011.96 1012.00 1012.02 1012.02 1012.01 1012.01 1012.04 1012.10 1012.22 1012.39 1012.62 1012.88 1013.18 1013.49 1013.79 1014.06
1012.99 1012.77 1012.57 1012.38 1012.21 1012.03 1011.85 1011.67 1011.49 1011.31 1011.16 1011.03 1010.94 1010.90 1010.91 1010.96 1011.05 1011.16 1011.28 1011.40 1011.49 1011.56 1011.59 1011.59 1011.56 1011.51 1011.46 1011.43 1011.44 1011.49 1011.60 1011.77 1011.99 1012.27 1012.57 1012.87 1013.16 1013.41
1013.15 1012.90 1012.67 1012.46 1012.25 1012.04 1011.83 1011.61 1011.40 1011.20 1011.02 1010.88 1010.77 1010.72 1010.71 1010.74 1010.81 1010.90 1010.99 1011.07 1011.13 1011.16 1011.16 1011.12 1011.05 1010.98 1010.90 1010.85 1010.84 1010.88 1010.98 1011.15 1011.36 1011.62 1011.90 1012.18 1012.44 1012.65
1013.32 1013.05 1012.78 1012.52 1012.27 1012.02 1011.77 1011.52 1011.28 1011.06 1010.87 1010.71 1010.59 1010.52 1010.49 1010.50 1010.54 1010.59 1010.64 1010.69 1010.71 1010.70 1010.66 1010.60 1010.51 1010.42 1010.34 1010.28 1010.27 1010.30 1010.39 1010.53 1010.72 1010.95 1011.18 1011.42 1011.62 1011.78
1013.46 1013.16 1012.86 1012.56 1012.25 1011.95 1011.66 1011.38 1011.11 1010.87 1010.66 1010.49 1010.36 1010.28 1010.23 1010.21 1010.21 1010.23 1010.24 1010.24 1010.23 1010.19 1010.13 1010.05 1009.97 1009.88 1009.80 1009.74 1009.72 1009.75 1009.81 1009.92 1010.07 1010.23 1010.41 1010.57 1010.71 1010.81
1013.51 1013.19 1012.85 1012.50 1012.15 1011.80 1011.47 1011.15 1010.86 1010.60 1010.39 1010.21 1010.08 1009.98 1009.91 1009.87 1009.85 1009.83 1009.81 1009.78 1009.74 1009.69 1009.62 1009.54 1009.46 1009.38 1009.31 1009.26 1009.23 1009.23 1009.26 1009.32 1009.39 1009.48 1009.57 1009.65 1009.70 1009.72
1013.42 1013.08 1012.71 1012.33 1011.93 1011.54 1011.17 1010.82 1010.51 1010.25 1010.03 1009.85 1009.72 1009.62 1009.55 1009.50 1009.45 1009.42 1009.38 1009.33 1009.28 1009.22 1009.16 1009.09 1009.02 1008.96 1008.90 1008.85 1008.80 1008.77 1008.74 1008.72 1008.71 1008.69 1008.68 1008.65 1008.61 1008.55
1013.17 1012.82 1012.43 1012.01 1011.58 1011.15 1010.75 1010.38 1010.07 1009.80 1009.58 1009.42 1009.30 1009.21 1009.14 1009.09 1009.04 1009.00 1008.96 1008.91 1008.86 1008.81 1008.77 1008.72 1008.67 1008.62 1008.56 1008.50 1008.42 1008.33 1008.23 1008.12 1008.00 1007.87 1007.74 1007.60 1007.46 1007.32
1012.75 1012.39 1011.99 1011.55 1011.09 1010.65 1010.23 1009.86 1009.54 1009.28 1009.08 1008.93 1008.82 1008.74 1008.69 1008.65 1008.61 1008.57 1008.54 1008.50 1008.47 1008.44 1008.42 1008.39 1008.36 1008.31 1008.25 1008.16 1008.05 1007.90 1007.71 1007.51 1007.28 1007.03 1006.78 1006.54 1006.31 1006.09
1012.20 1011.84 1011.42 1010.98 1010.52 1010.06 1009.64 1009.27 1008.96 1008.71 1008.52 1008.38 1008.29 1008.23 1008.19 1008.16 1008.13 1008.10 1008.08 1008.06 1008.05 1008.04 1008.03 1008.02 1008.00 1007.96 1007.89 1007.78 1007.62 1007.41 1007.15 1006.86 1006.53 1006.18 1005.84 1005.50 1005.19 1004.92
1011.55 1011.19 1010.78 1010.34 1009.88 1009.43 1009.02 1008.66 1008.35 1008.11 1007.93 1007.81 1007.72 1007.66 1007.62 1007.59 1007.56 1007.54 1007.52 1007.51 1007.51 1007.51 1007.52 1007.53 1007.52 1007.48 1007.40 1007.27 1007.08 1006.82 1006.51 1006.15 1005.75 1005.34 1004.93 1004.53 1004.17 1003.86
1010.88 1010.52 1010.12 1009.68 1009.24 1008.80 1008.40 1008.05 1007.76 1007.52 1007.34 1007.20 1007.11 1007.03 1006.97 1006.92 1006.88 1006.84 1006.81 1006.79 1006.79 1006.80 1006.81 1006.82 1006.82 1006.79 1006.71 1006.57 1006.37 1006.10 1005.77 1005.38 1004.96 1004.52 1004.08 1003.66 1003.28 1002.96
1010.24 1009.89 1009.49 1009.07 1008.65 1008.23 1007.84 1007.50 1007.20 1006.96 1006.76 1006.60 1006.46 1006.35 1006.25 1006.15 1006.06 1005.98 1005.92 1005.87 1005.85 1005.85 1005.86 1005.87 1005.88 1005.85 1005.79 1005.67 1005.48 1005.23 1004.92 1004.55 1004.15 1003.73 1003.31 1002.91 1002.55 1002.23
Thickness
5610 5609 5608 5609 5610 5610 5610 5610 5608 5608 5611 5615 5619 5623 5625 5627 5630 5632 5634 5637 5639 5641 5642 5643 5644 5645 5646 5646 5647 5647 5647 5648 5649 5650 5651 5651 5649 5648
5602 5601 5601 5602 5602 5602 5602 5602 5602 5602 5602 5606 5609 5613 5616 5618 5620 5623 5626 5628 5631 5633 5635 5636 5637 5639 5639 5640 5640 5641 5641 5641 5642 5643 5644 5644 5644 5642
5594 5594 5594 5594 5594 5594 5595 5595 5595 5595 5595 5598 5601 5604 5606 5609 5612 5614 5617 5620 5623 5626 5627 5629 5630 5631 5632 5632 5633 5634 5634 5635 5635 5636 5637 5637 5637 5636
5587 5587 5587 5588 5587 5587 5587 5587 5587 5588 5588 5590 5592 5595 5598 5601 5603 5606 5609 5612 5616 5618 5620 5621 5623 5624 5624 5626 5626 5627 5627 5628 5628 5629 5629 5630 5630 5629
5581 5581 5581 5581 5580 5579 5579 5579 5580 5582 5582 5583 5585 5587 5590 5593 5595 5598 5601 5604 5607 5609 5612 5613 5614 5616 5617 5618 5619 5620 5621 5621 5622 5622 5622 5622 5622 5622
5576 5575 5575 5574 5574 5573 5574 5573 5574 5574 5575 5576 5578 5580 5582 5585 5586 5589 5592 5595 5598 5601 5604 5605 5607 5608 5610 5611 5612 5613 5614 5615 5615 5616 5616 5616 5615 5615
5570 5570 5570 5570 5570 5569 5569 5568 5568 5568 5568 5570 5571 5573 5575 5577 5579 5582 5584 5587 5590 5593 5595 5598 5600 5601 5603 5605 5606 5607 5607 5608 5608 5609 5609 5609 5608 5608
5565 5565 5565 5565 5565 5565 5565 5565 5564 5563 5563 5564 5566 5567 5569 5572 5574 5576 5577 5579 5582 5585 5586 5589 5592 5594 5597 5599 5600 5601 5601 5601 5602 5602 5602 5602 5602 5601
5560 5560 5561 5561 5559 5559 5559 5560 5560 5561 5561 5560 5561 5563 5565 5567 5569 5570 5571 5573 5576 5579 5579 5582 5586 5588 5591 5593 5594 5594 5595 5595 5595 5596 5595 5595 5595 5594
5556 5555 5554 5554 5555 5554 5554 5554 5554 5555 5557 5558 5559 5560 5561 5562 5563 5565 5566 5568 5570 5572 5575 5576 5580 5582 5585 5587 5588 5589 5589 5589 5589 5589 5590 5589 5589 5588
5553 5552 5551 5550 5551 5550 5549 5549 5550 5551 5553 5554 5555 5556 5557 5558 5558 5559 5560 5561 5563 5566 5569 5571 5573 5576 5578 5581 5583 5584 5585 5585 5584 5584 5584 5583 5583 5582
5549 5548 5548 5548 5547 5547 5545 5545 5545 5547 5548 5550 5551 5552 5553 5554 5555 5555 5556 5556 5557 5560 5565 5565 5567 5569 5571 5575 5578 5579 5579 5579 5579 5579 5579 5578 5577 5575
5545 5545 5545 5546 5545 5544 5543 5542 5543 5544 5545 5546 5547 5548 5550 5551 5552 5553 5553 5554 5554 5557 5560 5561 5562 5563 5565 5568 5572 5574 5574 5575 5574 5574 5574 5574 5573 5572
5544 5544 5543 5544 5544 5543 5543 5543 5543 5543 5542 5542 5544 5546 5547 5550 5552 5552 5553 5553 5554 5556 5558 5557 5558 5559 5560 5562 5565 5569 5570 5571 5570 5571 5571 5570 5569 5569
5544 5544 5544 5543 5543 5543 5544 5544 5543 5542 5541 5541 5542 5544 5546 5548 5549 5550 5551 5551 5552 5554 5555 5555 5556 5556 5556 5558 5561 5564 5565 5567 5568 5568 5567 5567 5567 5566
5543 5543 5544 5544 5543 5544 5544 5544 5544 5542 5541 5541 5542 5543 5545 5546 5546 5547 5547 5547 5548 5550 5553 5554 5554 5554 5554 5556 5557 5560 5561 5563 5565 5565 5565 5564 5565 5564
5542 5541 5542 5542 5542 5543 5543 5544 5544 5544 5543 5543 5542 5542 5543 5544 5545 5545 5545 5544 5544 5546 5549 5552 5553 5553 5554 5554 5555 5558 5559 5561 5563 5563 5561 5561 5564 5565
5541 5540 5541 5541 5541 5542 5542 5544 5545 5545 5545 5545 5544 5543 5543 5543 5544 5544 5543 5543 5544 5546 5547 5550 5550 5550 5551 5554 5556 5557 5558 5560 5561 5561 5560 5559 5562 5565
5541 5541 5541 5542 5543 5543 5543 5544 5545 5547 5547 5546 5545 5544 5544 5544 5543 5543 5543 5543 5544 5545 5547 5547 5547 5547 5547 5550 5556 5558 5557 5559 5559 5559 5558 5559 5561 5565
5543 5543 5544 5545 5545 5545 5546 5546 5547 5548 5547 5547 5546 5546 5545 5544 5544 5544 5543 5543 5544 5545 5546 5547 5547 5547 5548 5550 5552 5556 5558 5556 5556 5556 5557 5558 5559 5562
5548 5547 5547 5547 5547 5547 5547 5548 5548 5547 5547 5547 5547 5546 5546 5544 5543 5544 5544 5544 5543 5544 5544 5546 5550 5551 5550 5548 5548 5551 5555 5557 5557 5556 5555 5553 5554 5555
5550 5549 5549 5549 5548 5548 5548 5548 5547 5547 5546 5546 5546 5546 5545 5544 5543 5543 5543 5543 5543 5543 5544 5546 5548 5547 5545 5545 5546 5548 5551 5554 5555 5555 5555 5555 5552 5552
5551 5550 5550 5549 5549 5548 5547 5547 5546 5545 5544 5544 5544 5544 5544 5543 5542 5542 5541 5542 5542 5542 5542 5542 5543 5543 5543 5542 5542 5544 5546 5547 5548 5549 5551 5553 5553 5554